Location: Pitton
(51.0667°N, 1.7000°W)
Time: 13:15:00
(UTC+00:00)

RESURS DK-1 - Pass Details

Date: 17 September 2019
Orbit: 558 x 561 km, 69.9° (Epoch: 16 October)

Event Time Altitude Azimuth Distance (km) Brightness Sun altitude
Rises 21:06:08 0° 330° (NNW) 2,759 7.0 -25.1°
Reaches altitude 10° 21:08:22 10° 333° (NNW) 1,859 5.9 -25.4°
Enters shadow 21:11:33 47° 0° (N) 751 3.1 -25.8°
